Rocky Mount, NC

11:01 PM EDT on March 26, 2017 (GMT -0400)
Rocky Mount-Wilson Regional

Weather History for KRWI - September, 2013

Change the Weather History Date:

Sunday, September 29, 2013

  Actual Average Record
Temperature  
Mean Temperature 63 °F -  
Max Temperature 77 °F 79 °F 92 °F (1973)
Min Temperature 51 °F 55 °F 41 °F (1958)
Degree Days  
Heating Degree Days 2    
Growing Degree Days 13 (Base 50)    
Moisture  
Dew Point 55 °F    
Average Humidity 83    
Maximum Humidity 100    
Minimum Humidity 50    
Precipitation  
Precipitation 0.01 in - - ()
Sea Level Pressure  
Sea Level Pressure 30.11 in    
Wind  
Wind Speed 4 mph (North)    
Max Wind Speed 12 mph    
Max Gust Speed 20 mph    
Visibility 8 miles    
Events      
Averages and records for this station are not official NWS values.
T = Trace of Precipitation, MM = Missing Value Source: NWS Daily Summary

Daily Weather History Graph

Daily Weather History Graph

Search for Another Location

Airport or City:

Trip Planner

Search our weather history database for the weather conditions in past years. The results will help you decide how hot, cold, wet, or windy it might be!

Date:

Astronomy

Sep. 29, 2013 Rise Set
Actual Time 7:05 AM EDT 6:57 PM EDT
Civil Twilight 6:39 AM EDT 7:23 PM EDT
Nautical Twilight 6:09 AM EDT 7:52 PM EDT
Astronomical Twilight 5:40 AM EDT 8:22 PM EDT
Moon 1:53 AM EDT (9/29) 3:44 PM EDT (9/29)
Length of Visible Light 12h 43m
Length of Day
11h 52m
Waning Crescent, 27% of the Moon is Illuminated
Sep 29
Waning Crescent
Oct 4
New
Oct 11
First Quarter
Oct 18
Full
Oct 26
Last Quarter

Hourly Weather History & Observations

Time (EDT) Temp. Dew Point Humidity Pressure Visibility Wind Dir Wind Speed Gust Speed Precip Events Conditions
12:53 AM 55.9 °F 55.0 °F 97% 30.17 in - NNE 4.6 mph - N/A   Clear
1:53 AM 55.0 °F 54.0 °F 96% 30.16 in 10.0 mi NNE 4.6 mph - N/A   Clear
2:53 AM 55.9 °F 54.0 °F 93% 30.15 in 8.0 mi Calm Calm - N/A   Clear
3:07 AM 53.6 °F 53.6 °F 100% 30.15 in 1.8 mi Calm Calm - N/A   Clear
3:20 AM 55.4 °F 53.6 °F 94% 30.14 in 0.8 mi Calm Calm - N/A   Clear
3:28 AM 55.4 °F 53.6 °F 94% 30.14 in 2.0 mi NNW 3.5 mph - N/A   Clear
3:36 AM 53.6 °F 51.8 °F 94% 30.14 in 10.0 mi NNW 3.5 mph - N/A   Clear
3:53 AM 54.0 °F 53.1 °F 97% 30.14 in 10.0 mi Calm Calm - N/A   Clear
4:31 AM 53.6 °F 53.6 °F 100% 30.13 in 1.5 mi Calm Calm - N/A   Clear
4:41 AM 53.6 °F 51.8 °F 94% 30.14 in 4.0 mi East 3.5 mph - N/A   Clear
4:53 AM 54.0 °F 53.1 °F 97% 30.13 in 9.0 mi Calm Calm - N/A   Clear
5:18 AM 51.8 °F 50.0 °F 94% 30.13 in 1.8 mi Calm Calm - N/A   Clear
5:38 AM 51.8 °F 51.8 °F 100% 30.13 in 3.0 mi Calm Calm - N/A   Clear
5:46 AM 51.8 °F 51.8 °F 100% 30.13 in 1.8 mi North 3.5 mph - N/A   Clear
5:53 AM 52.0 °F 51.1 °F 97% 30.13 in 2.0 mi North 4.6 mph - N/A   Clear
6:01 AM 51.8 °F 51.8 °F 100% 30.13 in 6.0 mi North 3.5 mph - N/A   Clear
6:53 AM 54.0 °F 53.1 °F 97% 30.14 in 10.0 mi North 4.6 mph - N/A   Clear
7:53 AM 55.0 °F 54.0 °F 96% 30.15 in 10.0 mi North 6.9 mph - 0.01 in   Clear
8:53 AM 60.1 °F 55.9 °F 86% 30.14 in 10.0 mi North 6.9 mph - N/A   Clear
9:53 AM 64.9 °F 57.0 °F 75% 30.14 in 10.0 mi NNW 10.4 mph - N/A   Clear
10:53 AM 68.0 °F 57.0 °F 68% 30.14 in 10.0 mi NNE 8.1 mph - N/A   Clear
11:28 AM 69.8 °F 55.4 °F 60% 30.13 in 10.0 mi North 9.2 mph - N/A   Mostly Cloudy
11:36 AM 71.6 °F 55.4 °F 57% 30.13 in 10.0 mi North 8.1 mph - N/A   Scattered Clouds
11:53 AM 71.1 °F 55.9 °F 59% 30.12 in 10.0 mi North 11.5 mph - N/A   Clear
12:53 PM 71.1 °F 55.9 °F 59% 30.11 in 10.0 mi North 10.4 mph - N/A   Mostly Cloudy
1:53 PM 72.0 °F 55.9 °F 57% 30.08 in 10.0 mi North 9.2 mph 19.6 mph N/A   Mostly Cloudy
2:53 PM 75.0 °F 57.0 °F 53% 30.05 in 10.0 mi North 6.9 mph - N/A   Partly Cloudy
3:53 PM 75.9 °F 57.0 °F 52% 30.03 in 10.0 mi North 5.8 mph - N/A   Scattered Clouds
4:53 PM 75.9 °F 55.9 °F 50% 30.03 in 10.0 mi NNW 4.6 mph - N/A   Scattered Clouds
5:53 PM 75.0 °F 55.9 °F 51% 30.03 in 10.0 mi NNW 5.8 mph - N/A   Mostly Cloudy
6:53 PM 70.0 °F 57.0 °F 63% 30.04 in 10.0 mi ENE 3.5 mph - N/A   Mostly Cloudy
7:53 PM 66.0 °F 59.0 °F 78% 30.06 in 10.0 mi NE 6.9 mph - N/A   Scattered Clouds
8:53 PM 64.0 °F 59.0 °F 84% 30.06 in 10.0 mi Calm Calm - N/A   Clear
9:53 PM 60.1 °F 57.9 °F 93% 30.06 in 10.0 mi Calm Calm - N/A   Clear
10:53 PM 57.9 °F 57.0 °F 97% 30.05 in 10.0 mi Calm Calm - N/A   Clear
11:53 PM 57.0 °F 55.9 °F 96% 30.05 in 7.0 mi Calm Calm - N/A   Clear